Location: Chuathbaluk
(61.5726°N, 159.2454°W)
Time: 12:34:38
(UTC+00:00)

DELFI C3 - Pass Details

Date: 21 January 2021
Orbit: 531 x 550 km, 97.4° (Epoch: 04 March)

Event Time Altitude Azimuth Distance (km) Brightness Sun altitude
Exits shadow 04:30:12 26° 51° (NE) 1,125 ? -15.3°
Drops below altitude 10° 04:33:21 10° 359° (N) 1,844 ? -15.6°
Sets 04:35:44 0° 347° (NNW) 2,744 ? -15.9°
